Погода в Городке

Украина / Львовская область     49°46′57″N   23°38′08″E
темп.,
°C
ветер,
м/с
пор.,
м/с
влажн.,
%
обл.,
%
осадки,
мм/ч
давл.,
гПа
погр.,
м
4 марта, чт
чт423:00+3ююз34850 0.0 102461
02:00+3зюз34860 0.0 102278
05:00+3зюз4108733 0.0 1019222
08:00+3зюз5128643 0.0 1018273
11:00+7зюз6137633 0.0 1016625
14:00+10з8136442 0.0 10141294
17:00+8з6127374 0.0 1013536
20:00+5зсз398787 0.0 1013293
5 марта, пт
пт523:00+5з2695100 0.8 1012237
02:00+4ссв1295100 1.8 101191
05:00+3ссз4798100 2.0 1011342
08:00+1с5797100 3.6 1012424
11:000с5793100 2.3 1016507
14:00+2с5670100 2.4 10181123
17:00+1с4665100 0.1 10191267
20:00−1с3570100 0.1 1023134
6 марта, сб
сб623:00−2ссз367335 0.0 1025154
02:00−2сз247418 0.0 1026118
05:00−2зсз368051 0.1 1027274
08:00−2зсз478050 0.2 1029411
11:00+1сз675735 0.3 10301454
14:00+2сз564668 0.5 10311803
17:00+1сз4651100 0.1 10301456
20:00−2з236352 0.1 103164
7 марта, вс
вс723:00−2зюз36710 0.0 1031163
02:00−2юз49660 0.0 1029292
05:00−2зюз512620 0.0 1027469
08:00−1зюз714590 0.0 1026607
11:00+3з812430 0.0 10241264
14:00+4з812430 0.0 10211368
17:00+3з611570 0.0 10191062
20:000зюз514720 0.0 1019461
8 марта, пн
пн823:00−1зюз513710 0.0 1019365
02:00−1з510757 0.0 1018312
05:00−2з511788 0.0 1017438
08:00−2зсз6108422 0.0 1018638
11:000зсз5783100 0.3 1019644
14:00+1с3465100 0.8 1019813
17:00+1ссз575897 0.0 10191336
20:00−2ссз387598 0.0 1022391